PROFILE

 METAR AND TAF INFORMATION
ADDS - METARS form results

(2317 UTC 26 May 2019)
http://aviationweather.gov/metar/data/
 
LFKJ 262300Z AUTO 00000KT 8000 OVC012 16/15 Q1006 TEMPO RA
LFKJ 262230Z AUTO 00000KT 8000 OVC012 16/15 Q1007 TEMPO RA
TAF LFKJ 262000Z 2621/2721 22005KT 9999 FEW015 BKN060 BKN100 TEMPO 2621/2717 RA PROB40 TEMPO 2621/2708 BKN010 PROB40 TEMPO 2710/2715 FEW035TCU PROB40 TEMPO 2715/2717 TS BKN025 FEW030CB BKN050 BKN080 BECMG 2717/2719 32010KT 

 AIRPORT MAP

 RUNWAY INFORMATION
Runway 02 Runway length 7897 ft Runway width 148 ft
Runway elevation 15 ft Runway displaced threshold 0 ft Runway heading 25
Runway 20 Runway length 7897 ft Runway width 148 ft
Runway elevation 18 ft Runway displaced threshold 744 ft Runway heading 205

 AIRPORT FREQUENCIES
Type AFIS Name AFIS Frequency 119.825 MHZ
Type APP Name AJACCIO AP Frequency 121.05 MHZ
Type ATIS Name AJACCIO AT Frequency 126.925 MHZ
Type GND Name AJACCIO GN Frequency 121.7 MHZ
Type TWR Name AJACCIO TW Frequency 118.075 MHZ

 AIRPORT NEAR NAVIGATION AIDS
Type NDB Name Ajaccio/Campo Dell Oro Frequency 341 KHZ